| time (UTC) | temp C | wind direction | speed KPH | gust KPH | rain 1hr cm | rain 24hr cm | rain mn cm | humidity % | barometer mb |
| 20260507060812 | 12 | 153 | 0.0 | 4.8 | 0.00 | 0.00 | 0.00 | 82 | 1020.3 |
| 20260507060240 | 12 | 146 | 0.0 | 4.8 | 0.00 | 0.00 | 0.00 | 81 | 1020.0 |
| 20260507055738 | 12 | 122 | 1.6 | 4.8 | 0.00 | 0.00 | 0.00 | 81 | 1020.3 |
| 20260507055237 | 12 | 124 | 1.6 | 4.8 | 0.00 | 0.00 | 0.00 | 81 | 1020.3 |
| 20260507054736 | 12 | 124 | 0.0 | 1.6 | 0.00 | 0.00 | 0.00 | 81 | 1020.3 |
| 20260507054235 | 13 | 124 | 0.0 | 1.6 | 0.00 | 0.00 | 0.00 | 80 | 1020.3 |
| 20260507053734 | 13 | 192 | 0.0 | 1.6 | 0.00 | 0.00 | 0.00 | 80 | 1020.0 |
| 20260507053233 | 13 | 158 | 1.6 | 1.6 | 0.00 | 0.00 | 0.00 | 80 | 1020.3 |
| 20260507052732 | 13 | 152 | 1.6 | 3.2 | 0.00 | 0.00 | 0.00 | 80 | 1020.3 |
| 20260507052231 | 13 | 219 | 1.6 | 3.2 | 0.00 | 0.00 | 0.00 | 80 | 1020.3 |
| 20260507051731 | 13 | 166 | 0.0 | 3.2 | 0.00 | 0.00 | 0.00 | 79 | 1020.3 |
| 20260507051230 | 13 | 221 | 3.2 | 3.2 | 0.00 | 0.00 | 0.00 | 79 | 1020.3 |
| 20260507050657 | 13 | 199 | 0.0 | 9.7 | 0.00 | 0.00 | 0.00 | 79 | 1020.3 |
| 20260507050157 | 13 | 199 | 0.0 | 9.7 | 0.00 | 0.00 | 0.00 | 78 | 1020.0 |
| 20260507045656 | 13 | 198 | 0.0 | 9.7 | 0.00 | 0.00 | 0.00 | 78 | 1020.0 |
| 20260507045156 | 13 | 194 | 3.2 | 9.7 | 0.00 | 0.00 | 0.00 | 78 | 1020.0 |
| 20260507044654 | 13 | 137 | 3.2 | 6.4 | 0.00 | 0.00 | 0.00 | 78 | 1020.0 |
| 20260507044153 | 13 | 191 | 1.6 | 4.8 | 0.00 | 0.00 | 0.00 | 78 | 1020.0 |
| 20260507043652 | 13 | 181 | 3.2 | 3.2 | 0.00 | 0.00 | 0.00 | 77 | 1020.0 |
| 20260507043152 | 13 | 145 | 1.6 | 1.6 | 0.00 | 0.00 | 0.00 | 77 | 1020.3 |
| 20260507042651 | 13 | 150 | 0.0 | 1.6 | 0.00 | 0.00 | 0.00 | 77 | 1020.3 |
| 20260507042150 | 13 | 150 | 0.0 | 0.0 | 0.00 | 0.00 | 0.00 | 77 | 1020.0 |
| 20260507041618 | 13 | 150 | 0.0 | 0.0 | 0.00 | 0.00 | 0.00 | 77 | 1020.0 |
| 20260507041046 | 13 | 150 | 0.0 | 0.0 | 0.00 | 0.00 | 0.00 | 76 | 1020.0 |
| 20260507040545 | 13 | 150 | 0.0 | 0.0 | 0.00 | 0.00 | 0.00 | 76 | 1020.0 |
| 20260507035941 | 13 | 150 | 0.0 | 1.6 | 0.00 | 0.00 | 0.00 | 76 | 1020.0 |
| 20260507035440 | 13 | 150 | 0.0 | 1.6 | 0.00 | 0.00 | 0.00 | 76 | 1020.0 |
| 20260507034940 | 13 | 150 | 0.0 | 1.6 | 0.00 | 0.00 | 0.00 | 76 | 1020.0 |
| 20260507034439 | 13 | 150 | 0.0 | 1.6 | 0.00 | 0.00 | 0.00 | 76 | 1020.0 |
| 20260507033907 | 13 | 294 | 0.0 | 0.0 | 0.00 | 0.00 | 0.00 | 76 | 1020.0 |
| 20260507033406 | 13 | 294 | 0.0 | 0.0 | 0.00 | 0.00 | 0.00 | 76 | 1019.6 |
| 20260507032906 | 13 | 294 | 0.0 | 1.6 | 0.00 | 0.00 | 0.00 | 75 | 1019.6 |
| 20260507032406 | 13 | 294 | 0.0 | 1.6 | 0.00 | 0.00 | 0.00 | 75 | 1020.0 |
| 20260507031905 | 13 | 294 | 0.0 | 1.6 | 0.00 | 0.00 | 0.00 | 75 | 1019.6 |
| 20260507031404 | 13 | 294 | 1.6 | 1.6 | 0.00 | 0.00 | 0.00 | 75 | 1019.6 |
| 20260507030903 | 14 | 294 | 0.0 | 0.0 | 0.00 | 0.00 | 0.00 | 75 | 1019.6 |
| 20260507030402 | 14 | 294 | 0.0 | 1.6 | 0.00 | 0.00 | 0.00 | 75 | 1019.6 |
| 20260507025902 | 14 | 294 | 0.0 | 1.6 | 0.00 | 0.00 | 0.00 | 75 | 1019.6 |
| 20260507025330 | 14 | 294 | 0.0 | 1.6 | 0.00 | 0.00 | 0.00 | 75 | 1019.6 |
| 20260507024757 | 14 | 297 | 0.0 | 1.6 | 0.00 | 0.00 | 0.00 | 75 | 1019.6 |
| 20260507024226 | 14 | 147 | 0.0 | 1.6 | 0.00 | 0.00 | 0.00 | 75 | 1019.6 |
| 20260507023725 | 14 | 155 | 1.6 | 3.2 | 0.00 | 0.00 | 0.00 | 75 | 1019.6 |
| 20260507023153 | 14 | 208 | 0.0 | 3.2 | 0.00 | 0.00 | 0.00 | 75 | 1019.6 |
| 20260507022652 | 14 | 165 | 1.6 | 3.2 | 0.00 | 0.00 | 0.00 | 74 | 1019.6 |
| 20260507022151 | 14 | 278 | 0.0 | 4.8 | 0.00 | 0.00 | 0.00 | 74 | 1019.3 |
| 20260507021649 | 14 | 119 | 0.0 | 6.4 | 0.00 | 0.00 | 0.00 | 74 | 1019.6 |
| 20260507021148 | 14 | 119 | 0.0 | 6.4 | 0.00 | 0.00 | 0.00 | 74 | 1019.3 |
| 20260507020616 | 14 | 128 | 1.6 | 6.4 | 0.00 | 0.00 | 0.00 | 74 | 1019.3 |
| 20260507020115 | 14 | 214 | 0.0 | 4.8 | 0.00 | 0.00 | 0.00 | 75 | 1019.3 |
| 20260507015614 | 14 | 176 | 1.6 | 6.4 | 0.00 | 0.00 | 0.00 | 75 | 1019.3 |
| 20260507015113 | 14 | 132 | 3.2 | 6.4 | 0.00 | 0.00 | 0.00 | 74 | 1019.3 |
| 20260507014612 | 14 | 223 | 0.0 | 6.4 | 0.00 | 0.00 | 0.00 | 74 | 1019.3 |
| 20260507014041 | 14 | 207 | 1.6 | 6.4 | 0.00 | 0.00 | 0.00 | 74 | 1019.3 |
| 20260507013540 | 14 | 156 | 3.2 | 6.4 | 0.00 | 0.00 | 0.00 | 74 | 1019.3 |
| 20260507013039 | 14 | 129 | 3.2 | 6.4 | 0.00 | 0.00 | 0.00 | 74 | 1019.3 |
| 20260507012537 | 14 | 172 | 3.2 | 6.4 | 0.00 | 0.00 | 0.00 | 75 | 1019.6 |
| 20260507012037 | 14 | 239 | 3.2 | 6.4 | 0.00 | 0.00 | 0.00 | 75 | 1019.6 |
| 20260507011536 | 14 | 159 | 1.6 | 6.4 | 0.00 | 0.00 | 0.00 | 75 | 1019.6 |
| 20260507011034 | 14 | 297 | 1.6 | 6.4 | 0.00 | 0.00 | 0.00 | 75 | 1019.6 |
| 20260507010534 | 14 | 228 | 1.6 | 6.4 | 0.00 | 0.00 | 0.00 | 75 | 1019.6 |
| 20260507010033 | 14 | 149 | 3.2 | 6.4 | 0.00 | 0.00 | 0.00 | 74 | 1019.6 |
| 20260507005533 | 14 | 199 | 0.0 | 6.4 | 0.00 | 0.00 | 0.00 | 74 | 1019.6 |
| 20260507005032 | 14 | 164 | 3.2 | 6.4 | 0.00 | 0.00 | 0.00 | 74 | 1019.6 |
| 20260507004531 | 14 | 194 | 0.0 | 4.8 | 0.00 | 0.00 | 0.00 | 74 | 1019.6 |
| 20260507004031 | 14 | 218 | 3.2 | 8.0 | 0.00 | 0.00 | 0.00 | 74 | 1019.6 |
| 20260507003530 | 14 | 166 | 1.6 | 8.0 | 0.00 | 0.00 | 0.00 | 74 | 1019.6 |
| 20260507003029 | 14 | 145 | 1.6 | 8.0 | 0.00 | 0.00 | 0.00 | 74 | 1019.6 |
| 20260507002529 | 14 | 168 | 4.8 | 8.0 | 0.00 | 0.00 | 0.00 | 73 | 1019.6 |
| 20260507002028 | 14 | 181 | 3.2 | 6.4 | 0.00 | 0.00 | 0.00 | 73 | 1019.6 |
| 20260507001527 | 14 | 220 | 3.2 | 6.4 | 0.00 | 0.00 | 0.00 | 73 | 1019.6 |
| 20260507001027 | 14 | 189 | 1.6 | 6.4 | 0.00 | 0.00 | 0.00 | 73 | 1019.6 |
| 20260507000525 | 14 | 233 | 1.6 | 6.4 | 0.00 | 0.00 | 0.00 | 73 | 1019.6 |
| 20260507000024 | 14 | 134 | 1.6 | 8.0 | 0.00 | 0.00 | 0.00 | 74 | 1019.6 |
| 20260506235523 | 14 | 130 | 1.6 | 8.0 | 0.00 | 0.00 | 0.00 | 73 | 1019.6 |
| 20260506235022 | 14 | 163 | 3.2 | 9.7 | 0.00 | 0.00 | 0.00 | 73 | 1019.6 |
| 20260506234521 | 14 | 270 | 3.2 | 9.7 | 0.00 | 0.00 | 0.00 | 73 | 1019.6 |
| 20260506233949 | 14 | 182 | 1.6 | 9.7 | 0.00 | 0.00 | 0.00 | 73 | 1019.6 |
| 20260506233448 | 14 | 202 | 1.6 | 9.7 | 0.00 | 0.00 | 0.00 | 73 | 1019.6 |
| 20260506232947 | 14 | 278 | 3.2 | 9.7 | 0.00 | 0.00 | 0.00 | 72 | 1019.6 |
| 20260506232446 | 14 | 198 | 1.6 | 9.7 | 0.00 | 0.00 | 0.00 | 73 | 1019.6 |
| 20260506231945 | 14 | 166 | 4.8 | 12.9 | 0.00 | 0.00 | 0.00 | 72 | 1019.6 |
| 20260506231413 | 14 | 158 | 4.8 | 12.9 | 0.00 | 0.00 | 0.00 | 72 | 1019.6 |
| 20260506230912 | 14 | 317 | 1.6 | 12.9 | 0.00 | 0.00 | 0.00 | 72 | 1019.6 |
| 20260506230412 | 14 | 270 | 3.2 | 12.9 | 0.00 | 0.00 | 0.00 | 71 | 1019.6 |
| 20260506225911 | 15 | 225 | 3.2 | 11.3 | 0.00 | 0.00 | 0.00 | 71 | 1019.6 |
| 20260506225339 | 15 | 151 | 3.2 | 11.3 | 0.00 | 0.00 | 0.00 | 70 | 1019.6 |
| 20260506224838 | 15 | 206 | 4.8 | 11.3 | 0.00 | 0.00 | 0.00 | 70 | 1019.6 |
| 20260506224337 | 15 | 161 | 4.8 | 12.9 | 0.00 | 0.00 | 0.00 | 70 | 1019.6 |
| 20260506223836 | 15 | 121 | 4.8 | 12.9 | 0.00 | 0.00 | 0.00 | 69 | 1019.6 |
| 20260506223303 | 15 | 274 | 4.8 | 12.9 | 0.00 | 0.00 | 0.00 | 69 | 1019.6 |
| 20260506222731 | 15 | 146 | 4.8 | 14.5 | 0.00 | 0.00 | 0.00 | 68 | 1019.6 |
| 20260506222159 | 15 | 149 | 3.2 | 14.5 | 0.00 | 0.00 | 0.00 | 68 | 1019.6 |
| 20260506221658 | 15 | 188 | 3.2 | 14.5 | 0.00 | 0.00 | 0.00 | 69 | 1020.0 |
| 20260506221157 | 15 | 189 | 1.6 | 12.9 | 0.00 | 0.00 | 0.00 | 68 | 1020.0 |
| 20260506220657 | 15 | 194 | 4.8 | 12.9 | 0.00 | 0.00 | 0.00 | 69 | 1020.0 |
| 20260506220155 | 15 | 140 | 3.2 | 12.9 | 0.00 | 0.00 | 0.00 | 69 | 1020.0 |
| 20260506215654 | 15 | 150 | 6.4 | 12.9 | 0.00 | 0.00 | 0.00 | 68 | 1020.0 |
| 20260506215153 | 15 | 173 | 3.2 | 9.7 | 0.00 | 0.00 | 0.00 | 69 | 1020.0 |
| 20260506214652 | 15 | 167 | 3.2 | 8.0 | 0.00 | 0.00 | 0.00 | 70 | 1020.0 |
| 20260506214151 | 15 | 179 | 4.8 | 8.0 | 0.00 | 0.00 | 0.00 | 69 | 1020.0 |
| 20260506213650 | 15 | 166 | 1.6 | 8.0 | 0.00 | 0.00 | 0.00 | 70 | 1020.0 |
| 20260506213150 | 14 | 229 | 1.6 | 11.3 | 0.00 | 0.00 | 0.00 | 70 | 1020.0 |
| 20260506212648 | 14 | 124 | 3.2 | 11.3 | 0.00 | 0.00 | 0.00 | 70 | 1020.0 |
| 20260506212147 | 14 | 178 | 3.2 | 11.3 | 0.00 | 0.00 | 0.00 | 70 | 1020.0 |
| 20260506211647 | 14 | 199 | 1.6 | 11.3 | 0.00 | 0.00 | 0.00 | 70 | 1020.0 |
| 20260506211145 | 14 | 160 | 4.8 | 9.7 | 0.00 | 0.00 | 0.00 | 71 | 1020.0 |
| 20260506210644 | 14 | 195 | 3.2 | 9.7 | 0.00 | 0.00 | 0.00 | 71 | 1020.0 |
| 20260506210143 | 14 | 171 | 3.2 | 8.0 | 0.00 | 0.00 | 0.00 | 70 | 1020.0 |
| 20260506205642 | 14 | 153 | 1.6 | 11.3 | 0.00 | 0.00 | 0.00 | 70 | 1020.0 |
| 20260506205110 | 14 | 276 | 1.6 | 11.3 | 0.00 | 0.00 | 0.00 | 70 | 1020.0 |
| 20260506204609 | 14 | 226 | 3.2 | 11.3 | 0.00 | 0.00 | 0.00 | 71 | 1020.0 |
| 20260506203934 | 14 | 162 | 4.8 | 11.3 | 0.00 | 0.00 | 0.00 | 71 | 1020.0 |
| 20260506203434 | 14 | 220 | 1.6 | 11.3 | 0.00 | 0.00 | 0.00 | 71 | 1020.0 |
| 20260506202933 | 14 | 253 | 1.6 | 11.3 | 0.00 | 0.00 | 0.00 | 72 | 1019.6 |
| 20260506202432 | 14 | 207 | 4.8 | 11.3 | 0.00 | 0.00 | 0.00 | 72 | 1019.6 |
| 20260506201931 | 13 | 114 | 3.2 | 8.0 | 0.00 | 0.00 | 0.00 | 74 | 1019.6 |
| 20260506201430 | 13 | 139 | 3.2 | 8.0 | 0.00 | 0.00 | 0.00 | 74 | 1020.0 |
| 20260506200930 | 13 | 157 | 3.2 | 6.4 | 0.00 | 0.00 | 0.00 | 74 | 1020.0 |
| 20260506200429 | 13 | 127 | 3.2 | 6.4 | 0.00 | 0.00 | 0.00 | 75 | 1020.0 |
| 20260506195928 | 13 | 253 | 3.2 | 8.0 | 0.00 | 0.00 | 0.00 | 76 | 1020.0 |
| 20260506195427 | 13 | 173 | 3.2 | 8.0 | 0.00 | 0.00 | 0.00 | 75 | 1020.0 |
| 20260506194926 | 13 | 171 | 3.2 | 8.0 | 0.00 | 0.00 | 0.00 | 75 | 1019.6 |
| 20260506194425 | 13 | 171 | 3.2 | 6.4 | 0.00 | 0.00 | 0.00 | 76 | 1019.6 |
| 20260506193924 | 13 | 60 | 1.6 | 6.4 | 0.00 | 0.00 | 0.00 | 77 | 1019.6 |
| 20260506193423 | 13 | 137 | 1.6 | 3.2 | 0.00 | 0.00 | 0.00 | 78 | 1019.6 |
| 20260506192922 | 13 | 194 | 1.6 | 3.2 | 0.00 | 0.00 | 0.00 | 78 | 1019.6 |
| 20260506192421 | 13 | 171 | 1.6 | 3.2 | 0.00 | 0.00 | 0.00 | 80 | 1019.6 |
| 20260506191920 | 13 | 148 | 0.0 | 6.4 | 0.00 | 0.00 | 0.00 | 80 | 1019.6 |
| 20260506191419 | 13 | 201 | 1.6 | 6.4 | 0.00 | 0.00 | 0.00 | 81 | 1019.6 |
| 20260506190847 | 13 | 116 | 1.6 | 6.4 | 0.00 | 0.00 | 0.00 | 81 | 1019.6 |
| 20260506190346 | 12 | 113 | 3.2 | 6.4 | 0.00 | 0.00 | 0.00 | 81 | 1019.6 |
| 20260506185846 | 12 | 165 | 1.6 | 6.4 | 0.00 | 0.00 | 0.00 | 83 | 1019.6 |
| 20260506185343 | 12 | 161 | 1.6 | 6.4 | 0.00 | 0.00 | 0.00 | 83 | 1019.6 |
| 20260506184842 | 12 | 160 | 3.2 | 6.4 | 0.00 | 0.00 | 0.00 | 83 | 1019.6 |
| 20260506184341 | 12 | 133 | 3.2 | 6.4 | 0.00 | 0.00 | 0.00 | 84 | 1019.6 |
| 20260506183841 | 12 | 212 | 3.2 | 6.4 | 0.00 | 0.00 | 0.00 | 84 | 1019.6 |
| 20260506183340 | 12 | 188 | 1.6 | 4.8 | 0.00 | 0.00 | 0.00 | 85 | 1019.6 |
| 20260506182808 | 12 | 135 | 0.0 | 4.8 | 0.00 | 0.00 | 0.00 | 85 | 1019.6 |
| 20260506182236 | 12 | 161 | 1.6 | 4.8 | 0.00 | 0.00 | 0.00 | 86 | 1019.6 |
| 20260506181735 | 12 | 135 | 0.0 | 4.8 | 0.00 | 0.00 | 0.00 | 86 | 1019.6 |
| 20260506181235 | 12 | 121 | 1.6 | 4.8 | 0.00 | 0.00 | 0.00 | 85 | 1019.6 |
| 20260506180703 | 12 | 118 | 1.6 | 4.8 | 0.00 | 0.00 | 0.00 | 85 | 1019.6 |
| 20260506180202 | 12 | 225 | 3.2 | 6.4 | 0.00 | 0.00 | 0.00 | 85 | 1019.6 |
| 20260506175629 | 12 | 147 | 3.2 | 6.4 | 0.00 | 0.00 | 0.00 | 86 | 1019.3 |
| 20260506175128 | 12 | 116 | 1.6 | 6.4 | 0.00 | 0.00 | 0.00 | 86 | 1019.3 |
| 20260506174628 | 12 | 191 | 0.0 | 6.4 | 0.00 | 0.00 | 0.00 | 86 | 1019.3 |
| 20260506174127 | 12 | 169 | 3.2 | 6.4 | 0.00 | 0.00 | 0.00 | 85 | 1019.3 |
| 20260506173554 | 12 | 138 | 3.2 | 6.4 | 0.00 | 0.00 | 0.00 | 86 | 1019.3 |
| 20260506173054 | 12 | 238 | 3.2 | 6.4 | 0.00 | 0.00 | 0.00 | 86 | 1019.3 |
| 20260506172553 | 12 | 173 | 0.0 | 6.4 | 0.00 | 0.00 | 0.00 | 85 | 1019.3 |
| 20260506172052 | 12 | 116 | 1.6 | 6.4 | 0.00 | 0.00 | 0.00 | 85 | 1019.6 |
| 20260506171551 | 12 | 194 | 1.6 | 6.4 | 0.00 | 0.00 | 0.00 | 84 | 1019.3 |
| 20260506171050 | 12 | 196 | 1.6 | 6.4 | 0.00 | 0.00 | 0.00 | 84 | 1019.3 |
| 20260506170549 | 12 | 251 | 1.6 | 6.4 | 0.00 | 0.00 | 0.00 | 84 | 1019.6 |
| 20260506170048 | 12 | 137 | 1.6 | 6.4 | 0.00 | 0.00 | 0.00 | 83 | 1019.3 |
| 20260506165547 | 12 | 201 | 1.6 | 6.4 | 0.00 | 0.00 | 0.00 | 83 | 1019.3 |
| 20260506165046 | 12 | 181 | 3.2 | 6.4 | 0.00 | 0.00 | 0.00 | 82 | 1019.3 |
| 20260506164514 | 12 | 194 | 1.6 | 4.8 | 0.00 | 0.00 | 0.00 | 82 | 1019.3 |
| 20260506163911 | 12 | 174 | 0.0 | 8.0 | 0.00 | 0.00 | 0.00 | 82 | 1019.3 |
| 20260506163339 | 12 | 240 | 0.0 | 8.0 | 0.00 | 0.00 | 0.00 | 82 | 1019.3 |
| 20260506162838 | 12 | 240 | 1.6 | 9.7 | 0.00 | 0.00 | 0.00 | 82 | 1019.3 |
| 20260506162337 | 12 | 146 | 3.2 | 9.7 | 0.00 | 0.00 | 0.00 | 83 | 1019.0 |
| 20260506161805 | 12 | 221 | 3.2 | 9.7 | 0.00 | 0.00 | 0.00 | 83 | 1019.0 |
| 20260506161304 | 12 | 149 | 4.8 | 9.7 | 0.00 | 0.00 | 0.00 | 84 | 1019.0 |
| 20260506160804 | 12 | 240 | 1.6 | 8.0 | 0.00 | 0.00 | 0.00 | 86 | 1019.0 |
| 20260506160303 | 12 | 223 | 0.0 | 8.0 | 0.00 | 0.00 | 0.00 | 86 | 1018.6 |
| 20260506155803 | 12 | 231 | 1.6 | 9.7 | 0.00 | 0.00 | 0.00 | 85 | 1018.6 |
| 20260506155305 | 12 | 198 | 3.2 | 9.7 | 0.00 | 0.00 | 0.00 | 86 | 1018.6 |
| 20260506154801 | 12 | 122 | 4.8 | 11.3 | 0.00 | 0.00 | 0.00 | 85 | 1018.6 |
| 20260506154301 | 12 | 115 | 3.2 | 11.3 | 0.00 | 0.00 | 0.00 | 85 | 1018.6 |
| 20260506153800 | 12 | 147 | 3.2 | 11.3 | 0.00 | 0.00 | 0.00 | 86 | 1018.6 |
| 20260506153259 | 12 | 143 | 3.2 | 11.3 | 0.00 | 0.00 | 0.00 | 86 | 1019.0 |
| 20260506152759 | 12 | 124 | 3.2 | 4.8 | 0.00 | 0.00 | 0.00 | 87 | 1019.0 |
| 20260506152227 | 12 | 148 | 1.6 | 4.8 | 0.00 | 0.00 | 0.00 | 87 | 1019.0 |
| 20260506151726 | 12 | 174 | 1.6 | 4.8 | 0.00 | 0.00 | 0.00 | 87 | 1019.0 |
| 20260506151226 | 12 | 168 | 1.6 | 4.8 | 0.00 | 0.00 | 0.00 | 87 | 1019.0 |
| 20260506150725 | 12 | 252 | 0.0 | 4.8 | 0.00 | 0.00 | 0.00 | 87 | 1019.0 |
| 20260506150225 | 12 | 252 | 0.0 | 4.8 | 0.00 | 0.00 | 0.00 | 87 | 1018.6 |
| 20260506145724 | 12 | 141 | 1.6 | 4.8 | 0.00 | 0.00 | 0.00 | 87 | 1018.6 |
| 20260506145222 | 12 | 117 | 3.2 | 4.8 | 0.00 | 0.00 | 0.00 | 87 | 1018.6 |
| 20260506144721 | 12 | 210 | 3.2 | 3.2 | 0.00 | 0.00 | 0.00 | 87 | 1018.6 |
| 20260506144220 | 12 | 91 | 0.0 | 4.8 | 0.00 | 0.00 | 0.00 | 86 | 1018.6 |
| 20260506143648 | 12 | 154 | 0.0 | 4.8 | 0.00 | 0.00 | 0.00 | 86 | 1018.6 |
| 20260506143147 | 12 | 149 | 0.0 | 4.8 | 0.00 | 0.00 | 0.00 | 86 | 1019.0 |
| 20260506142646 | 12 | 195 | 1.6 | 4.8 | 0.00 | 0.00 | 0.00 | 85 | 1019.0 |
| 20260506142145 | 12 | 224 | 1.6 | 4.8 | 0.00 | 0.00 | 0.00 | 85 | 1018.6 |
| 20260506141613 | 12 | 236 | 1.6 | 4.8 | 0.00 | 0.00 | 0.00 | 85 | 1018.6 |
| 20260506141112 | 12 | 256 | 1.6 | 4.8 | 0.00 | 0.00 | 0.00 | 84 | 1018.6 |
| 20260506140540 | 12 | 228 | 1.6 | 4.8 | 0.00 | 0.00 | 0.00 | 84 | 1018.6 |
| 20260506140039 | 12 | 230 | 1.6 | 4.8 | 0.00 | 0.00 | 0.00 | 84 | 1018.6 |
| 20260506135538 | 12 | 180 | 1.6 | 4.8 | 0.00 | 0.00 | 0.00 | 84 | 1018.6 |
| 20260506135037 | 12 | 152 | 1.6 | 8.0 | 0.00 | 0.00 | 0.00 | 84 | 1018.6 |
| 20260506134536 | 12 | 143 | 1.6 | 8.0 | 0.00 | 0.00 | 0.00 | 84 | 1018.6 |
| 20260506134035 | 12 | 144 | 1.6 | 8.0 | 0.00 | 0.00 | 0.00 | 84 | 1018.6 |
| 20260506133534 | 12 | 158 | 3.2 | 8.0 | 0.00 | 0.00 | 0.00 | 84 | 1018.3 |
| 20260506133034 | 12 | 217 | 1.6 | 4.8 | 0.00 | 0.00 | 0.00 | 84 | 1018.3 |
| 20260506132533 | 12 | 260 | 1.6 | 4.8 | 0.00 | 0.00 | 0.00 | 84 | 1018.6 |
| 20260506132032 | 12 | 127 | 0.0 | 4.8 | 0.00 | 0.00 | 0.00 | 84 | 1018.3 |
| 20260506131531 | 12 | 211 | 0.0 | 6.4 | 0.00 | 0.00 | 0.00 | 84 | 1018.3 |
| 20260506131030 | 12 | 154 | 1.6 | 6.4 | 0.00 | 0.00 | 0.00 | 84 | 1018.3 |
| 20260506130529 | 12 | 186 | 0.0 | 6.4 | 0.00 | 0.00 | 0.00 | 84 | 1018.3 |
| 20260506130028 | 12 | 187 | 3.2 | 6.4 | 0.00 | 0.00 | 0.00 | 84 | 1017.9 |
| 20260506125527 | 12 | 118 | 1.6 | 4.8 | 0.00 | 0.00 | 0.00 | 84 | 1017.9 |
| 20260506125026 | 12 | 155 | 1.6 | 3.2 | 0.00 | 0.00 | 0.00 | 84 | 1017.9 |
| 20260506124423 | 12 | 183 | 1.6 | 4.8 | 0.00 | 0.00 | 0.00 | 84 | 1017.9 |
| 20260506123922 | 12 | 197 | 1.6 | 4.8 | 0.00 | 0.00 | 0.00 | 84 | 1017.9 |
| 20260506123422 | 12 | 157 | 1.6 | 4.8 | 0.00 | 0.00 | 0.00 | 84 | 1017.9 |
| 20260506122921 | 12 | 117 | 1.6 | 6.4 | 0.00 | 0.00 | 0.00 | 84 | 1017.9 |
| 20260506122349 | 12 | 156 | 1.6 | 6.4 | 0.00 | 0.00 | 0.00 | 84 | 1017.9 |
| 20260506121817 | 12 | 168 | 1.6 | 6.4 | 0.00 | 0.00 | 0.00 | 83 | 1017.9 |
| 20260506121316 | 12 | 153 | 3.2 | 4.8 | 0.00 | 0.00 | 0.00 | 83 | 1017.9 |
| 20260506120815 | 12 | 211 | 1.6 | 4.8 | 0.00 | 0.00 | 0.00 | 83 | 1017.6 |
| 20260506120314 | 12 | 158 | 1.6 | 4.8 | 0.00 | 0.00 | 0.00 | 83 | 1017.6 |
| 20260506115814 | 12 | 152 | 1.6 | 3.2 | 0.00 | 0.00 | 0.00 | 83 | 1017.6 |
| 20260506115313 | 12 | 240 | 0.0 | 3.2 | 0.00 | 0.00 | 0.00 | 83 | 1017.9 |
| 20260506114811 | 12 | 240 | 1.6 | 4.8 | 0.00 | 0.00 | 0.00 | 83 | 1017.6 |
| 20260506114311 | 12 | 191 | 0.0 | 4.8 | 0.00 | 0.00 | 0.00 | 83 | 1017.6 |
| 20260506113810 | 12 | 191 | 0.0 | 4.8 | 0.00 | 0.00 | 0.00 | 83 | 1017.6 |
| 20260506113309 | 12 | 183 | 3.2 | 8.0 | 0.00 | 0.00 | 0.00 | 83 | 1017.6 |
| 20260506112809 | 12 | 142 | 3.2 | 8.0 | 0.00 | 0.00 | 0.00 | 83 | 1017.6 |
| 20260506112308 | 12 | 182 | 1.6 | 8.0 | 0.00 | 0.00 | 0.00 | 84 | 1017.3 |
| 20260506111806 | 12 | 147 | 1.6 | 8.0 | 0.00 | 0.00 | 0.00 | 84 | 1017.6 |
| 20260506111306 | 12 | 166 | 3.2 | 8.0 | 0.00 | 0.00 | 0.00 | 84 | 1017.6 |
| 20260506110804 | 12 | 227 | 0.0 | 3.2 | 0.00 | 0.00 | 0.00 | 84 | 1017.3 |
| 20260506110232 | 12 | 278 | 1.6 | 3.2 | 0.00 | 0.00 | 0.00 | 84 | 1017.3 |
| 20260506105629 | 12 | 110 | 0.0 | 3.2 | 0.00 | 0.00 | 0.00 | 84 | 1017.3 |
| 20260506105128 | 12 | 298 | 0.0 | 3.2 | 0.00 | 0.00 | 0.00 | 84 | 1017.3 |
| 20260506104557 | 12 | 271 | 0.0 | 1.6 | 0.00 | 0.00 | 0.00 | 84 | 1017.3 |
| 20260506104056 | 12 | 130 | 0.0 | 1.6 | 0.00 | 0.00 | 0.00 | 84 | 1017.3 |
| 20260506103524 | 12 | 130 | 0.0 | 1.6 | 0.00 | 0.00 | 0.00 | 84 | 1017.3 |
| 20260506103024 | 12 | 158 | 0.0 | 3.2 | 0.00 | 0.00 | 0.00 | 84 | 1017.3 |
| 20260506102523 | 12 | 158 | 0.0 | 3.2 | 0.00 | 0.00 | 0.00 | 84 | 1016.9 |
| 20260506102022 | 12 | 160 | 0.0 | 3.2 | 0.00 | 0.00 | 0.00 | 84 | 1017.3 |
| 20260506101521 | 12 | 162 | 1.6 | 3.2 | 0.00 | 0.00 | 0.00 | 84 | 1017.3 |
| 20260506101020 | 12 | 265 | 0.0 | 3.2 | 0.00 | 0.00 | 0.00 | 84 | 1016.9 |
| 20260506100519 | 12 | 269 | 0.0 | 4.8 | 0.00 | 0.00 | 0.00 | 84 | 1016.9 |
| 20260506100019 | 12 | 235 | 1.6 | 4.8 | 0.00 | 0.00 | 0.00 | 85 | 1016.9 |
| 20260506095517 | 12 | 182 | 0.0 | 4.8 | 0.00 | 0.00 | 0.00 | 85 | 1016.9 |
| 20260506095017 | 12 | 230 | 0.0 | 4.8 | 0.00 | 0.00 | 0.00 | 85 | 1016.9 |
| 20260506094516 | 12 | 179 | 0.0 | 4.8 | 0.00 | 0.00 | 0.00 | 86 | 1016.9 |
| 20260506093944 | 11 | 184 | 1.6 | 4.8 | 0.00 | 0.00 | 0.00 | 86 | 1016.6 |
| 20260506093443 | 11 | 150 | 1.6 | 4.8 | 0.00 | 0.00 | 0.00 | 87 | 1016.6 |
| 20260506092943 | 11 | 117 | 1.6 | 4.8 | 0.00 | 0.00 | 0.00 | 88 | 1016.6 |
| 20260506092411 | 11 | 101 | 0.0 | 1.6 | 0.00 | 0.00 | 0.00 | 88 | 1016.6 |
| 20260506091910 | 11 | 148 | 0.0 | 0.0 | 0.00 | 0.00 | 0.00 | 88 | 1016.6 |
| 20260506091409 | 11 | 148 | 0.0 | 0.0 | 0.00 | 0.00 | 0.00 | 88 | 1016.6 |
| 20260506090838 | 11 | 148 | 0.0 | 0.0 | 0.00 | 0.00 | 0.00 | 88 | 1016.6 |
| 20260506090305 | 11 | 148 | 0.0 | 0.0 | 0.00 | 0.00 | 0.00 | 88 | 1016.6 |
| 20260506085702 | 11 | 148 | 0.0 | 0.0 | 0.00 | 0.00 | 0.00 | 88 | 1016.6 |
| 20260506085201 | 11 | 148 | 0.0 | 0.0 | 0.00 | 0.00 | 0.00 | 88 | 1016.6 |
| 20260506084700 | 11 | 148 | 0.0 | 0.0 | 0.00 | 0.00 | 0.00 | 87 | 1016.6 |
| 20260506084159 | 11 | 148 | 0.0 | 0.0 | 0.00 | 0.00 | 0.00 | 87 | 1016.3 |
| 20260506083658 | 11 | 148 | 0.0 | 0.0 | 0.00 | 0.00 | 0.00 | 86 | 1016.3 |
| 20260506083157 | 11 | 148 | 0.0 | 0.0 | 0.00 | 0.00 | 0.00 | 86 | 1016.3 |
| 20260506082656 | 11 | 148 | 0.0 | 0.0 | 0.00 | 0.00 | 0.00 | 87 | 1016.3 |
| 20260506082124 | 11 | 148 | 0.0 | 0.0 | 0.00 | 0.00 | 0.00 | 87 | 1016.3 |
| 20260506081552 | 11 | 148 | 0.0 | 0.0 | 0.00 | 0.00 | 0.00 | 87 | 1016.3 |
| 20260506081051 | 11 | 148 | 0.0 | 0.0 | 0.00 | 0.00 | 0.00 | 87 | 1015.9 |
| 20260506080550 | 11 | 148 | 0.0 | 0.0 | 0.00 | 0.00 | 0.00 | 87 | 1015.9 |
| 20260506073512 | 12 | 148 | 0.0 | 0.0 | 0.00 | 0.00 | 0.00 | 86 | 1015.9 |
| 20260506073011 | 12 | 147 | 0.0 | 0.0 | 0.00 | 0.00 | 0.00 | 86 | 1015.9 |
| 20260506072511 | 12 | 148 | 0.0 | 0.0 | 0.00 | 0.00 | 0.00 | 86 | 1015.9 |
| 20260506072010 | 12 | 148 | 0.0 | 0.0 | 0.00 | 0.00 | 0.00 | 86 | 1015.9 |
| 20260506071510 | 12 | 148 | 0.0 | 0.0 | 0.00 | 0.00 | 0.00 | 86 | 1015.9 |
| 20260506071009 | 12 | 148 | 0.0 | 0.0 | 0.00 | 0.00 | 0.00 | 86 | 1015.9 |
| 20260506070507 | 12 | 148 | 0.0 | 0.0 | 0.00 | 0.00 | 0.00 | 86 | 1015.9 |
| 20260506062429 | 12 | 148 | 0.0 | 0.0 | 0.00 | 0.00 | 0.00 | 87 | 1015.6 |
| 20260506061928 | 12 | 148 | 0.0 | 0.0 | 0.00 | 0.00 | 0.00 | 87 | 1015.6 |
| 20260506061427 | 12 | 148 | 0.0 | 0.0 | 0.00 | 0.00 | 0.00 | 87 | 1015.6 |